| time (UTC) | temp F | wind direction | speed knots | gust knots | rain 1hr in | rain 24hr in | rain mn in | humidity % | barometer mb |
| 20260505170004 | 67 | 91 | 11.3 | 16.5 | 0.00 | 0.00 | 0.00 | 53 | 1017.4 |
| 20260505164558 | 66 | 124 | 11.3 | 15.6 | 0.00 | 0.00 | 0.00 | 52 | 1017.3 |
| 20260505163154 | 66 | 97 | 12.2 | 17.4 | 0.00 | 0.00 | 0.00 | 53 | 1017.4 |
| 20260505161610 | 65 | 90 | 10.4 | 17.4 | 0.00 | 0.00 | 0.00 | 54 | 1017.4 |
| 20260505153001 | 63 | 81 | 11.3 | 17.4 | 0.00 | 0.00 | 0.00 | 56 | 1017.3 |
| 20260505151618 | 62 | 114 | 12.2 | 18.2 | 0.00 | 0.00 | 0.00 | 56 | 1017.3 |
| 20260505124549 | 53 | 102 | 9.6 | 13.9 | 0.00 | 0.00 | 0.00 | 64 | 1015.9 |
| 20260505123045 | 53 | 120 | 8.7 | 13.0 | 0.00 | 0.00 | 0.00 | 63 | 1015.8 |
| 20260505121514 | 53 | 119 | 10.4 | 15.6 | 0.00 | 0.00 | 0.00 | 64 | 1015.6 |
| 20260505120033 | 53 | 105 | 12.2 | 17.4 | 0.00 | 0.00 | 0.00 | 65 | 1015.5 |
| 20260505114538 | 53 | 109 | 12.2 | 18.2 | 0.00 | 0.00 | 0.00 | 66 | 1015.3 |
| 20260505113004 | 54 | 93 | 13.9 | 20.0 | 0.00 | 0.00 | 0.00 | 65 | 1015.2 |
| 20260505111600 | 54 | 115 | 13.0 | 18.2 | 0.00 | 0.00 | 0.00 | 64 | 1015.1 |
| 20260505111502 | 54 | 86 | 13.0 | 18.2 | 0.00 | 0.00 | 0.00 | 64 | 1015.1 |
| 20260505101522 | 54 | 92 | 10.4 | 13.9 | 0.00 | 0.00 | 0.00 | 64 | 1014.7 |
| 20260505100021 | 54 | 117 | 9.6 | 12.2 | 0.00 | 0.00 | 0.00 | 65 | 1014.6 |
| 20260505094612 | 55 | 140 | 9.6 | 13.9 | 0.00 | 0.00 | 0.00 | 63 | 1014.4 |
| 20260505093010 | 55 | 105 | 10.4 | 13.9 | 0.00 | 0.00 | 0.00 | 65 | 1014.3 |
| 20260505091607 | 54 | 140 | 7.8 | 10.4 | 0.00 | 0.00 | 0.00 | 65 | 1014.3 |
| 20260505090023 | 55 | 117 | 7.0 | 9.6 | 0.00 | 0.00 | 0.00 | 63 | 1014.2 |
| 20260505084541 | 55 | 113 | 7.0 | 9.6 | 0.00 | 0.00 | 0.00 | 63 | 1014.0 |
| 20260505083036 | 54 | 120 | 6.1 | 7.8 | 0.00 | 0.00 | 0.00 | 65 | 1014.0 |
| 20260505081508 | 55 | 113 | 7.0 | 10.4 | 0.00 | 0.00 | 0.00 | 63 | 1013.8 |
| 20260505080002 | 56 | 126 | 7.8 | 10.4 | 0.00 | 0.00 | 0.00 | 61 | 1013.7 |
| 20260505074530 | 58 | 123 | 9.6 | 13.0 | 0.00 | 0.00 | 0.00 | 57 | 1013.6 |
| 20260505073045 | 58 | 105 | 8.7 | 11.3 | 0.00 | 0.00 | 0.00 | 57 | 1013.5 |
| 20260505071602 | 57 | 96 | 8.7 | 11.3 | 0.00 | 0.00 | 0.00 | 58 | 1013.3 |
| 20260505070103 | 59 | 94 | 8.7 | 12.2 | 0.00 | 0.00 | 0.00 | 55 | 1013.3 |
| 20260505064538 | 60 | 88 | 8.7 | 12.2 | 0.00 | 0.00 | 0.00 | 53 | 1013.1 |
| 20260505063029 | 61 | 103 | 8.7 | 10.4 | 0.00 | 0.00 | 0.00 | 52 | 1013.0 |
| 20260505061559 | 61 | 110 | 6.1 | 8.7 | 0.00 | 0.00 | 0.00 | 55 | 1012.9 |
| 20260505054537 | 62 | 80 | 7.8 | 9.6 | 0.00 | 0.00 | 0.00 | 54 | 1012.9 |
| 20260505051621 | 61 | 120 | 4.3 | 6.1 | 0.00 | 0.00 | 0.00 | 58 | 1012.7 |
| 20260505041559 | 65 | 128 | 4.3 | 5.2 | 0.00 | 0.00 | 0.00 | 51 | 1012.2 |
| 20260505041554 | 65 | 127 | 4.3 | 5.2 | 0.00 | 0.00 | 0.00 | 51 | 1012.2 |
| 20260505040014 | 68 | 122 | 3.5 | 4.3 | 0.00 | 0.00 | 0.00 | 45 | 1012.0 |
| 20260505034512 | 69 | 126 | 2.6 | 6.1 | 0.00 | 0.00 | 0.00 | 42 | 1011.8 |
| 20260505033041 | 69 | 138 | 1.7 | 3.5 | 0.00 | 0.00 | 0.00 | 42 | 1011.6 |
| 20260505031551 | 70 | 144 | 2.6 | 4.3 | 0.00 | 0.00 | 0.00 | 44 | 1011.4 |
| 20260505030032 | 72 | 141 | 3.5 | 6.1 | 0.00 | 0.00 | 0.00 | 44 | 1011.1 |
| 20260505024538 | 73 | 139 | 3.5 | 5.2 | 0.00 | 0.00 | 0.00 | 41 | 1011.0 |
| 20260505023020 | 74 | 184 | 4.3 | 5.2 | 0.00 | 0.00 | 0.00 | 39 | 1010.9 |
| 20260505021520 | 74 | 195 | 4.3 | 6.1 | 0.00 | 0.00 | 0.00 | 40 | 1010.9 |
| 20260505020030 | 75 | 190 | 4.3 | 6.1 | 0.00 | 0.00 | 0.00 | 37 | 1010.9 |
| 20260505014527 | 75 | 159 | 4.3 | 7.0 | 0.00 | 0.00 | 0.00 | 36 | 1010.9 |
| 20260505013002 | 74 | 151 | 4.3 | 7.0 | 0.00 | 0.00 | 0.00 | 41 | 1010.9 |
| 20260505011601 | 75 | 131 | 5.2 | 9.6 | 0.00 | 0.00 | 0.00 | 40 | 1011.0 |
| 20260505004554 | 76 | 78 | 7.8 | 12.2 | 0.00 | 0.00 | 0.00 | 41 | 1011.2 |
| 20260505003017 | 77 | 128 | 5.2 | 8.7 | 0.00 | 0.00 | 0.00 | 35 | 1011.2 |
| 20260505001515 | 76 | 80 | 6.1 | 8.7 | 0.00 | 0.00 | 0.00 | 37 | 1011.3 |
| 20260505000039 | 77 | 55 | 4.3 | 11.3 | 0.00 | 0.00 | 0.00 | 40 | 1011.2 |
| 20260504234526 | 77 | 67 | 3.5 | 9.6 | 0.00 | 0.00 | 0.00 | 36 | 1011.3 |
| 20260504233013 | 78 | 132 | 1.7 | 7.0 | 0.00 | 0.00 | 0.00 | 35 | 1011.2 |
| 20260504230104 | 79 | 248 | 3.5 | 7.8 | 0.00 | 0.00 | 0.00 | 33 | 1011.4 |
| 20260504224547 | 77 | 159 | 5.2 | 8.7 | 0.00 | 0.00 | 0.00 | 39 | 1011.5 |
| 20260504223025 | 76 | 137 | 4.3 | 8.7 | 0.00 | 0.00 | 0.00 | 41 | 1011.7 |
| 20260504221523 | 78 | 126 | 1.7 | 7.8 | 0.00 | 0.00 | 0.00 | 39 | 1011.8 |
| 20260504220021 | 77 | 185 | 2.6 | 6.1 | 0.00 | 0.00 | 0.00 | 41 | 1011.9 |
| 20260504214519 | 77 | 101 | 4.3 | 7.0 | 0.00 | 0.00 | 0.00 | 44 | 1012.0 |
| 20260504213119 | 78 | 49 | 1.7 | 7.0 | 0.00 | 0.00 | 0.00 | 38 | 1012.2 |
| 20260504211552 | 77 | 123 | 3.5 | 6.1 | 0.00 | 0.00 | 0.00 | 38 | 1012.4 |
| 20260504210044 | 76 | 121 | 4.3 | 11.3 | 0.00 | 0.00 | 0.00 | 36 | 1012.6 |
| 20260504204508 | 77 | 163 | 2.6 | 5.2 | 0.00 | 0.00 | 0.00 | 35 | 1012.7 |
| 20260504203008 | 77 | 259 | 0.9 | 6.1 | 0.00 | 0.00 | 0.00 | 40 | 1012.8 |
| 20260504201602 | 78 | 277 | 0.9 | 6.1 | 0.00 | 0.00 | 0.00 | 45 | 1012.9 |
| 20260504200029 | 77 | 258 | 4.3 | 6.1 | 0.00 | 0.00 | 0.00 | 39 | 1012.9 |
| 20260504194506 | 76 | 143 | 3.5 | 7.0 | 0.00 | 0.00 | 0.00 | 42 | 1013.1 |
| 20260504193056 | 75 | 215 | 2.6 | 5.2 | 0.00 | 0.00 | 0.00 | 45 | 1013.2 |
| 20260504191525 | 75 | 128 | 0.9 | 4.3 | 0.00 | 0.00 | 0.00 | 47 | 1013.3 |
| 20260504190015 | 74 | 161 | 4.3 | 6.1 | 0.00 | 0.00 | 0.00 | 47 | 1013.4 |
| 20260504184658 | 73 | 52 | 5.2 | 7.8 | 0.00 | 0.00 | 0.00 | 46 | 1013.5 |
| 20260504183106 | 73 | 125 | 1.7 | 4.3 | 0.00 | 0.00 | 0.00 | 52 | 1013.5 |
| 20260504181600 | 72 | 82 | 1.7 | 6.1 | 0.00 | 0.00 | 0.00 | 53 | 1013.7 |
| 20260504174551 | 70 | 63 | 2.6 | 7.8 | 0.00 | 0.00 | 0.00 | 52 | 1013.6 |
| 20260504173047 | 71 | 46 | 1.7 | 5.2 | 0.00 | 0.00 | 0.00 | 46 | 1013.6 |
| 20260504171523 | 70 | 234 | 0.9 | 4.3 | 0.00 | 0.00 | 0.00 | 48 | 1013.7 |